Simultaneous Nadir Overpasses (SNOs) Predictions

Prediction of SNOs between AURA and NPP Satellite Orbit:

Table of predicted SNOs for the next 14.0 days since TLE Epoch: 9/8/2017
Index Date (AURA) Time (AURA) Lat,Lon (AURA) SZA (AURA ) Date (NPP) Time (NPP) Lat,Lon (NPP) SZA (NPP ) Distance(km) Time Diff (sec)
1 09/11/2017 02:51:45 -79.25,-147.87 91.82 09/11/2017 02:51:19 -79.25,-147.79 91.82 1.54 26
2 09/11/2017 03:41:06 79.44, 21.06 87.92 09/11/2017 03:41:58 79.44, 20.96 87.90 1.98 52
3 09/13/2017 18:19:15 78.02, 153.73 90.73 09/13/2017 18:18:01 78.11, 153.45 90.82 11.94 74
4 09/13/2017 19:08:11 -79.32, -31.54 90.96 09/13/2017 19:08:14 -79.32, -31.50 90.97 0.91 3
5 09/16/2017 10:35:15 79.13, -84.47 90.26 09/16/2017 10:34:30 79.13, -84.49 90.30 0.78 45
6 09/16/2017 11:24:34 -79.45, 85.23 90.17 09/16/2017 11:25:06 -79.45, 85.31 90.21 1.66 32
7 09/19/2017 02:51:39 79.26, 32.20 91.07 09/19/2017 02:51:23 79.26, 32.27 91.07 1.67 16
8 09/19/2017 03:41:01 -79.46,-158.84 89.21 09/19/2017 03:42:03 -79.45,-158.96 89.23 2.56 62
9 09/21/2017 18:18:45 -79.06, -20.76 87.71 09/21/2017 18:17:41 -79.07, -20.70 87.67 1.46 64




NCC Satellite Simultaneous Nadir Overpasses (SNOs) Prediction Service
